SCP
2 2 1 0 0 0 0 0 0 0 0 0 0 0 0 0 0 0 0 -0 0 -0
2 3 1 0 0 0 0 0 0 0 0 0 0 0 0 0 0 0 -0 0 -0 -0
4 1 0 1 0 0 0 0 0 0 0 0 0 0 0 0 0 0 0 -0 -0 -0
4 0 0 0 0 0 0 0 0 0 0 0 0 0 0 0 0 0 0 0 -0 -0
1 0 0 0 0 0 0 0 0 0 0 0 0 0 0 0 0 0 0 0 0 0
0 0 0 0 0 1 0 0 0 0 0 0 0 0 0 0 0 0 0 0 0 0
0 1 1 0 0 0 0 0 0 0 0 0 0 0 0 0 0 0 0 0 0 0
-0 0 1 0 0 0 1 0 0 0 0 0 0 0 0 0 0 0 0 0 0 0
0 0 1 1 0 0 1 1 0 0 0 0 0 0 0 0 0 0 0 0 0 0
1 1 1 1 0 1 1 1 1 1 0 0 0 0 0 0 0 0 0 0 0 0
1 1 1 1 1 1 2 2 1 1 0 0 0 0 0 0 0 0 0 0 0 0
0 1 1 1 1 1 1 1 1 1 1 1 0 0 0 0 0 0 0 0 0 0
1 1 1 2 2 1 1 1 1 1 1 0 0 0 0 0 0 0 0 0 0 0
0 2 2 2 3 2 2 1 1 0 0 0 0 0 0 0 0 0 0 0 0 0
Wind_Speed_500mb
112 98 95 77 72 72 61 60 57 48 37 27 19 12 4 5 11 15 17 22 21 12
127 107 92 82 81 74 68 57 60 53 41 31 23 16 9 4 6 11 18 22 27 18
114 110 90 80 81 79 75 69 62 55 46 35 28 21 15 8 3 10 14 16 27 28
112 120 88 67 82 85 81 78 64 58 49 39 31 26 19 15 6 5 14 24 29 33
100 109 94 82 93 96 83 80 69 61 52 43 35 31 25 18 9 6 14 23 32 33
81 98 97 74 86 99 80 82 75 66 57 49 41 37 30 22 16 14 19 26 34 42
66 83 100 99 74 68 74 77 76 68 59 51 44 43 36 30 22 19 24 31 41 50
62 77 90 91 90 83 77 79 76 68 62 56 52 49 42 34 24 24 29 36 44 53
53 61 70 95 97 104 87 84 81 73 66 60 57 52 44 34 30 30 33 39 48 55
48 56 65 77 99 100 98 94 89 79 67 63 58 56 45 35 35 34 38 45 54 60
42 50 57 71 95 91 105 101 91 81 68 63 56 54 46 35 38 39 42 51 58 59
36 43 56 65 78 64 68 85 83 69 63 54 60 50 41 38 38 41 46 53 56 61
25 38 55 61 65 62 61 64 56 53 53 52 50 44 41 37 40 45 49 50 54 59
24 36 49 54 59 55 56 53 51 50 51 47 41 40 38 41 43 50 47 46 40 37
Wind_Direction_500mb
222 219 220 221 218 215 205 207 209 206 203 198 196 196 177 53 37 26 18 18 10 2
217 217 220 216 217 221 208 204 210 206 204 200 202 201 187 138 57 30 22 9 7 359
218 221 216 213 218 218 213 209 207 205 204 202 204 204 192 183 120 29 16 11 356 355
224 221 209 219 223 221 219 215 209 208 207 204 206 207 202 198 194 18 358 358 354 351
220 216 205 195 231 224 220 215 212 209 207 206 208 212 211 208 222 297 329 339 343 341
217 217 218 213 209 220 215 213 210 208 209 209 210 212 214 219 237 277 306 322 329 333
214 212 209 211 199 222 217 215 211 210 210 210 212 215 216 226 239 272 297 311 321 325
216 222 222 208 210 200 219 219 217 213 211 209 215 216 217 227 241 269 292 306 316 319
214 211 206 212 196 194 207 220 216 213 211 212 215 215 219 229 250 270 289 304 311 314
217 212 205 202 200 200 201 212 215 212 208 213 213 219 220 233 255 273 291 302 308 313
217 214 206 203 200 200 207 206 204 206 207 210 214 218 226 242 261 279 292 300 305 306
215 209 204 203 196 194 191 197 200 201 202 199 217 221 235 251 270 281 290 296 301 303
211 203 198 191 187 189 186 188 188 189 196 199 218 227 241 256 269 284 293 294 298 296
178 189 191 187 183 178 175 179 179 185 194 204 217 236 248 260 275 286 291 291 292 290
Wind_Speed_850mb
112 98 95 77 72 72 61 60 57 48 37 27 19 12 4 5 11 15 17 22 21 12
127 107 92 82 81 74 68 57 60 53 41 31 23 16 9 4 6 11 18 22 27 18
114 110 90 80 81 79 75 69 62 55 46 35 28 21 15 8 3 10 14 16 27 28
112 120 88 67 82 85 81 78 64 58 49 39 31 26 19 15 6 5 14 24 29 33
100 109 94 82 93 96 83 80 69 61 52 43 35 31 25 18 9 6 14 23 32 33
81 98 97 74 86 99 80 82 75 66 57 49 41 37 30 22 16 14 19 26 34 42
66 83 100 99 74 68 74 77 76 68 59 51 44 43 36 30 22 19 24 31 41 50
62 77 90 91 90 83 77 79 76 68 62 56 52 49 42 34 24 24 29 36 44 53
53 61 70 95 97 104 87 84 81 73 66 60 57 52 44 34 30 30 33 39 48 55
48 56 65 77 99 100 98 94 89 79 67 63 58 56 45 35 35 34 38 45 54 60
42 50 57 71 95 91 105 101 91 81 68 63 56 54 46 35 38 39 42 51 58 59
36 43 56 65 78 64 68 85 83 69 63 54 60 50 41 38 38 41 46 53 56 61
25 38 55 61 65 62 61 64 56 53 53 52 50 44 41 37 40 45 49 50 54 59
24 36 49 54 59 55 56 53 51 50 51 47 41 40 38 41 43 50 47 46 40 37
Wind_Direction_850mb
222 219 220 221 218 215 205 207 209 206 203 198 196 196 177 53 37 26 18 18 10 2
217 217 220 216 217 221 208 204 210 206 204 200 202 201 187 138 57 30 22 9 7 359
218 221 216 213 218 218 213 209 207 205 204 202 204 204 192 183 120 29 16 11 356 355
224 221 209 219 223 221 219 215 209 208 207 204 206 207 202 198 194 18 358 358 354 351
220 216 205 195 231 224 220 215 212 209 207 206 208 212 211 208 222 297 329 339 343 341
217 217 218 213 209 220 215 213 210 208 209 209 210 212 214 219 237 277 306 322 329 333
214 212 209 211 199 222 217 215 211 210 210 210 212 215 216 226 239 272 297 311 321 325
216 222 222 208 210 200 219 219 217 213 211 209 215 216 217 227 241 269 292 306 316 319
214 211 206 212 196 194 207 220 216 213 211 212 215 215 219 229 250 270 289 304 311 314
217 212 205 202 200 200 201 212 215 212 208 213 213 219 220 233 255 273 291 302 308 313
217 214 206 203 200 200 207 206 204 206 207 210 214 218 226 242 261 279 292 300 305 306
215 209 204 203 196 194 191 197 200 201 202 199 217 221 235 251 270 281 290 296 301 303
211 203 198 191 187 189 186 188 188 189 196 199 218 227 241 256 269 284 293 294 298 296
178 189 191 187 183 178 175 179 179 185 194 204 217 236 248 260 275 286 291 291 292 290